STARLINK-1578, 46082

Orbit data source: Space-Track

STARLINK-1578, 46082 is a payload satellite owned by SpaceX/Seattle (US) in LEO that was launched on Fri, 07 Aug 2020 UTC via an FALCON 9 launch vehicle from the Air Force Eastern Test Range (AFETR). Payload-class satellites include a variety of spacecraft equipped with specific instruments for various scientific and technological missions. These include communications satellites like Starlink; space stations such as the ISS; scientific satellites like the Hubble; Earth observation satellites from companies like Planet Labs, Umbra, and HawkEye 360; GPS; miniature CubeSats for education and research; and military/defense satellites.

Loading next visibility...
Identifier
46082, 2020-055BH
Orbit
LEO
Country
Flag of USUS
Related business
Manufacturer
SpaceX/Seattle
Mission
Operational Commercial Communications
Bus & Motor
STARLINK, Unknown motor
Mass
260 kg wet, ~248 kg dry
Launch date (UTC)
2020-08-07 (6 years ago)
Launch vehicle
FALCON 9
Launch site
Air Force Eastern Test Range (AFETR)
Object type
Payload
Rocket body
Debris
Shape & HBR
Box + 1 Pan, 10.1 m
Radar Cross Section
13.562 m², Large (>1 m²)

Expand to show TLE details & history
Last TLE update: 16 hours ago

TLE from 16 hours ago
0 STARLINK-1578
1 46082U 20055BH  26235.47511578  .00001584  00000-0  62803-4 0  9999
2 46082  53.1599  45.5206 0000968  91.3718 268.7394 15.31702803334782
Epoch: 2026-08-23T11:24Z
TLE epoch observation values (Epoch: 2026-08-23T11:24:10.003Z)
Latitude
-0.00004°
Longitude
-97.29175°
Altitude
471.647 km
Speed
7.631 km/s
True Right ascension
03h 02m 04s
True Declination
0° 00' 00"
Sunlit
Object was in daylight at epoch
Visualization orbit readout
Latitude
Unknown
Longitude
Unknown
Altitude
Unknown
Speed
Unknown
Apparent Right ascension
Unknown
Apparent Declination
Unknown
Sunlit
N/A
Visualization observer readout
Local Sidereal Time
18:57:51
Azimuth
Unknown
Elevation
Unknown
Doppler factor
Unknown
Orbital elements
Apogee altitude
471.651 km
Perigee altitude
470.325 km
Semi-major axis
6,849.125 km
Eccentricity
0.0001
Inclination
53.1599°
RAAN
45.5206°
Arg. of periapsis
91.3718°
True anomaly
268.72831°
Mean anomaly
268.7394°
Eccentric anomaly
268.73386°
Mean motion
3.82905 °/min
Orbital period
94.02 mins
BSTAR
0.000062803
Loading maneuver chart data...
Computing Atmospheric mass density...

Documentation

Showing up to 5 results
|